Theta_e
286 285 285 285 285 285 284 284 283 283 283 282 282 282 282 282 282 281 281 281 280 280 279 279 279 279 280 279 279 279 279 278 277 277 277 278 277 277 278 277 277 277
285 285 285 285 284 284 284 284 283 283 282 282 282 281 281 281 281 281 280 280 280 279 279 279 279 278 278 278 278 278 277 277 276 279 277 276 277 277 277 277 277 277
285 284 285 284 284 284 283 283 283 282 282 281 281 281 281 281 281 280 280 280 279 278 278 278 278 278 278 278 277 277 277 276 276 276 277 276 276 277 277 277 277 277
285 285 285 284 284 283 283 282 282 281 281 280 280 280 281 281 280 279 279 280 278 278 278 277 277 277 277 277 277 277 276 276 275 275 275 275 276 276 276 276 277 277
284 284 284 284 283 283 282 282 281 281 280 280 280 280 280 279 279 278 278 278 278 277 277 277 277 277 277 276 276 276 275 275 275 275 275 275 275 275 275 276 275 275
284 284 284 284 283 282 282 282 281 280 280 279 279 279 279 279 278 278 278 277 277 277 276 276 276 276 276 276 275 275 275 275 274 274 274 274 274 274 275 275 274 273
283 283 283 283 282 282 281 281 280 280 280 279 279 279 278 278 277 277 277 277 276 276 276 276 275 275 275 275 275 274 274 274 273 273 273 273 273 273 273 273 273 272
283 283 282 282 281 281 281 280 280 280 279 278 278 278 278 277 277 277 276 276 276 275 275 275 275 275 274 274 274 273 272 274 273 272 272 272 272 272 272 273 272 271
282 282 282 281 281 280 280 280 279 279 278 278 278 277 277 277 276 276 276 276 275 275 275 274 274 274 274 273 273 273 272 272 273 272 272 272 272 271 271 271 271 271
282 281 281 280 280 280 280 279 278 278 278 278 277 277 276 276 276 276 275 275 275 274 274 274 273 273 273 273 273 272 272 272 272 272 272 271 271 271 271 271 270 270
281 281 280 280 280 279 279 278 277 277 277 277 276 276 275 275 275 275 275 274 274 274 273 273 273 273 273 272 272 273 273 272 272 271 271 271 271 271 272 271 270 269
281 280 280 280 279 279 278 277 277 276 276 276 276 275 275 275 275 274 274 274 274 274 274 273 273 273 273 272 272 271 271 271 271 271 271 271 271 270 270 270 270 269
281 280 280 279 279 278 277 276 276 276 276 275 275 275 274 274 274 274 274 273 273 273 273 273 272 272 271 271 270 270 270 270 270 270 270 270 270 270 270 270 270 270
281 280 279 279 278 277 276 276 276 275 275 275 275 274 274 274 274 274 273 273 273 272 272 272 271 271 270 270 270 270 269 269 270 269 269 269 269 270 270 270 270 270
280 279 279 278 277 276 276 275 275 275 275 274 274 274 274 274 274 273 272 272 272 271 271 271 271 270 270 270 269 269 270 269 269 269 269 269 269 270 270 271 271 271
280 279 278 277 276 276 275 275 275 274 274 274 274 274 273 273 272 272 272 271 270 270 270 270 270 270 272 275 273 270 269 269 269 269 270 270 270 270 271 272 272 272
278 278 277 276 276 276 275 275 274 274 273 273 273 272 272 271 271 271 270 270 270 270 269 270 270 270 274 276 277 276 271 269 269 270 270 271 271 271 272 272 273 273
278 277 276 276 275 275 274 274 274 273 273 272 271 270 270 270 270 270 270 271 271 270 270 270 270 273 276 277 277 278 276 270 271 271 272 272 273 272 273 273 273 273
277 276 276 275 275 275 274 273 273 273 272 271 270 270 269 270 271 270 270 270 270 270 270 270 270 274 276 277 277 278 278 277 274 274 273 273 273 273 273 273 273 272
277 276 276 275 275 274 274 273 272 272 271 271 270 270 270 270 270 269 270 270 270 270 270 270 270 274 277 277 277 278 278 278 275 274 274 274 274 274 273 272 272 271
277 276 276 275 275 274 273 272 272 271 270 270 270 270 270 269 269 269 269 269 270 270 270 270 270 274 277 277 277 277 278 278 275 275 274 274 273 272 272 272 271 271
277 276 276 275 274 273 272 272 272 271 270 269 269 269 269 269 269 269 269 269 270 270 269 269 270 275 276 276 276 277 278 276 275 274 273 272 272 272 272 272 272 272
277 276 275 274 273 272 272 272 271 270 269 269 268 268 268 268 268 269 269 269 269 269 269 268 269 273 275 275 276 277 276 274 273 272 272 272 272 272 272 272 273 273
277 276 275 273 272 272 272 272 270 270 269 269 268 267 267 267 268 268 269 269 269 268 268 268 268 271 274 275 275 276 275 273 272 272 272 272 271 272 272 273 273 275
277 276 275 273 272 272 272 270 269 269 269 268 268 268 267 267 268 267 268 268 268 268 270 268 267 269 273 274 275 275 275 273 272 271 271 271 271 271 272 273 273 275
277 276 274 273 273 272 271 270 270 268 267 268 268 267 267 267 267 267 267 267 268 267 269 269 267 267 270 274 274 275 276 273 272 271 270 270 271 271 271 273 274 274
Wind_Speed
13 12 13 12 12 12 13 13 12 13 12 11 11 11 11 9 9 10 9 8 7 8 7 6 6 5 6 5 5 5 3 3 2 2 2 2 3 3 5 5 4 5
16 14 11 10 9 10 12 13 14 14 13 12 10 10 8 9 9 9 9 8 8 8 7 7 6 6 6 6 5 5 3 3 3 2 2 2 3 3 5 4 5 4
13 14 15 16 16 15 14 12 13 12 12 11 10 9 9 9 10 8 8 8 8 8 8 7 6 6 6 5 5 4 4 3 3 2 2 3 3 4 4 4 4 4
16 16 16 15 12 13 11 11 11 10 9 10 11 10 10 9 10 10 9 9 8 8 7 6 6 6 5 5 5 4 3 3 3 3 3 3 3 3 4 3 4 4
16 15 13 12 10 9 9 12 13 12 12 11 10 10 10 10 10 10 9 8 8 7 7 7 6 6 6 5 5 4 3 4 2 3 3 3 3 3 3 3 4 4
11 12 11 11 11 11 12 12 12 12 12 12 13 10 11 11 11 11 10 10 8 8 8 7 7 6 6 6 5 5 4 4 3 3 3 3 3 2 2 2 2 3
15 13 13 10 10 11 12 11 10 11 11 11 11 11 11 11 11 11 10 10 9 8 8 7 7 7 6 6 5 4 4 3 3 3 3 3 3 3 2 2 3 3
12 10 10 10 11 11 13 12 12 12 11 11 13 11 12 12 11 10 9 10 9 8 8 8 8 7 7 7 6 6 4 4 5 4 4 4 3 4 2 2 1 2
10 10 10 11 12 11 12 12 11 10 11 13 12 11 9 11 11 11 10 10 9 9 9 8 8 8 7 7 7 7 6 5 5 4 4 4 4 4 3 2 3 3
12 11 12 12 13 12 12 9 9 8 9 11 11 11 12 9 10 11 10 11 10 10 10 9 9 8 7 7 7 7 6 6 5 5 4 4 4 3 3 3 3 3
13 13 14 14 14 11 11 10 10 9 9 10 11 11 11 11 10 10 11 11 11 11 10 9 9 9 8 7 6 6 6 5 5 5 4 4 4 3 4 3 3 3
15 13 15 15 14 12 12 11 10 10 10 8 11 12 11 11 12 11 11 11 10 10 9 9 8 8 7 6 6 5 5 4 4 4 4 3 4 4 3 3 4 4
14 15 13 12 12 11 10 10 11 11 11 11 10 11 12 12 11 11 8 9 9 9 9 9 8 7 7 7 6 5 5 4 4 4 3 3 4 4 5 5 5 5
15 14 13 13 11 11 11 11 11 11 12 10 11 12 12 11 12 11 9 8 9 8 8 8 8 7 6 6 5 5 5 4 5 5 4 4 4 5 6 6 6 6
12 10 11 11 12 12 13 13 13 12 11 11 10 10 9 10 9 10 10 9 8 8 8 7 7 7 6 7 7 7 7 7 6 5 5 5 5 6 6 7 7 7
12 12 12 12 13 14 14 13 12 12 11 11 10 10 9 9 9 8 9 10 10 8 7 7 7 5 9 14 11 7 6 5 4 4 5 6 6 6 7 7 7 7
12 13 13 14 14 12 11 12 12 11 11 11 10 9 9 9 9 10 9 9 10 9 9 7 6 6 14 13 14 15 9 6 6 5 6 7 7 7 6 7 7 7
13 13 13 12 12 13 13 12 12 12 12 11 10 10 9 8 10 10 9 8 6 7 6 6 6 10 15 15 15 15 13 8 6 6 7 7 7 7 6 6 7 8
12 14 14 13 14 14 13 13 14 13 13 12 13 11 10 11 10 9 8 7 7 8 7 7 6 12 15 15 14 13 13 11 7 7 6 6 6 5 6 7 6 7
13 14 15 14 13 14 14 14 15 15 14 12 12 10 10 10 10 10 9 9 9 9 8 8 7 12 15 14 13 13 13 11 4 6 5 5 6 6 4 4 7 6
14 15 15 14 14 15 15 15 16 13 14 13 10 11 13 12 10 10 10 11 10 9 8 8 7 14 15 15 13 13 13 11 5 6 5 5 4 3 5 7 7 8
15 15 15 15 15 15 16 16 16 16 16 12 13 11 10 10 9 8 11 12 11 10 8 7 7 16 14 14 13 13 13 6 4 5 5 3 2 5 6 7 7 9
16 16 16 16 16 16 17 17 16 15 13 12 13 13 13 12 13 10 8 9 9 11 9 6 6 11 13 12 12 12 9 3 4 3 3 5 5 6 6 7 8 10
15 16 17 16 16 18 18 15 13 12 14 13 15 14 13 12 10 8 7 7 11 12 7 8 7 9 13 11 11 11 8 4 4 5 5 4 4 6 6 7 9 16
14 15 16 17 18 17 16 17 16 15 12 11 11 11 12 11 11 12 10 7 7 9 14 9 7 8 12 11 12 12 9 5 5 4 5 5 4 5 7 7 8 10
13 15 15 17 17 15 14 14 12 12 13 13 11 10 11 10 11 11 11 7 8 8 8 9 8 6 7 13 12 12 12 6 5 6 5 4 5 6 6 6 5 5
Wind_Direction
192 193 195 195 194 184 177 179 181 180 184 181 183 182 184 179 167 172 171 165 164 160 161 159 155 152 146 132 131 128 139 156 158 172 202 207 238 236 247 248 244 234
197 193 193 194 195 190 187 181 178 180 181 182 181 173 169 159 170 167 166 164 160 161 155 153 153 151 143 135 132 132 138 140 167 154 185 208 227 227 240 241 244 248
195 193 193 194 196 193 185 180 177 180 178 178 167 167 162 162 161 162 160 159 157 155 155 153 150 149 141 137 134 138 147 151 171 183 185 213 220 228 239 237 245 243
203 199 197 197 194 191 182 176 179 173 165 165 173 165 161 162 155 155 155 155 153 155 154 150 151 145 137 134 130 133 141 151 168 171 206 229 224 227 239 222 239 248
204 202 199 195 191 183 179 183 181 176 172 168 155 159 154 152 153 154 154 155 153 153 152 151 145 139 133 130 133 138 140 157 170 174 207 230 232 227 240 223 235 242
208 206 200 193 185 180 186 190 183 174 167 163 166 155 159 155 155 156 156 155 157 154 154 149 144 140 139 139 139 148 155 164 185 184 215 230 237 219 211 225 248 261
204 197 197 188 182 187 186 187 181 178 175 163 148 164 153 157 157 158 157 156 155 157 155 154 148 149 147 144 145 149 154 168 184 190 213 233 223 243 228 236 249 254
202 195 191 185 186 187 190 185 180 178 168 158 165 158 159 157 158 157 156 154 154 155 155 153 153 151 149 146 152 154 166 167 179 193 214 228 224 241 234 226 235 263
190 193 190 188 189 192 194 187 180 171 168 165 161 156 158 158 157 156 157 154 154 157 156 158 158 156 156 153 159 161 170 179 179 188 204 216 216 226 227 219 234 245
193 191 186 189 193 194 192 184 174 171 168 166 160 155 157 156 155 156 155 159 158 161 162 160 159 156 156 158 160 164 171 180 181 186 191 188 203 217 211 214 239 258
194 188 191 190 194 187 187 174 173 168 171 167 159 159 158 153 157 158 159 162 166 166 162 161 160 156 156 157 158 160 168 172 172 162 180 197 211 219 239 225 231 237
191 190 193 193 187 183 179 173 168 169 168 168 166 161 159 163 161 167 167 166 162 160 157 154 151 152 154 153 153 152 155 164 162 173 181 192 211 213 213 229 235 236
188 192 189 187 185 176 164 165 169 168 169 170 169 163 163 164 166 162 164 157 157 153 155 151 148 147 148 150 151 152 157 165 171 172 185 186 205 218 234 233 234 231
194 187 180 180 174 164 164 166 166 169 172 167 164 168 169 167 164 162 157 153 153 150 147 143 144 143 145 147 148 153 160 171 184 193 203 212 209 224 232 238 238 239
181 176 175 167 166 163 166 168 169 168 165 165 167 166 166 165 157 151 149 145 141 139 137 139 145 154 153 157 161 170 170 184 186 189 197 209 224 227 234 240 240 237
175 171 170 166 166 171 170 166 164 164 163 165 167 164 158 153 149 146 146 145 141 140 140 145 154 157 176 180 180 171 175 177 183 191 204 215 223 237 241 237 243 254
170 173 166 172 173 166 165 163 164 162 163 163 160 156 153 150 145 145 144 147 148 151 155 158 165 172 185 191 191 188 178 179 178 193 201 217 222 228 243 256 257 260
174 167 169 171 166 169 166 165 159 160 162 160 153 150 148 144 150 152 143 137 137 136 147 161 170 187 190 192 195 197 185 175 182 190 204 211 229 239 242 255 271 277
169 170 171 169 173 167 164 162 162 162 161 158 162 157 149 156 154 144 144 141 146 152 161 170 173 192 192 192 196 198 202 193 178 190 200 213 226 233 255 262 272 282
172 171 174 173 167 165 164 166 166 171 167 162 154 155 156 154 148 145 152 153 159 161 162 175 174 191 191 193 193 199 202 206 173 191 208 225 240 244 246 278 282 275
175 174 174 170 169 167 168 171 171 165 164 166 161 159 158 161 159 156 161 163 166 166 163 170 176 189 190 190 192 196 201 205 184 197 199 198 205 247 276 267 265 261
175 176 173 170 170 170 171 173 173 170 167 163 160 162 162 159 162 158 161 167 167 166 159 162 175 187 186 189 191 194 199 199 177 187 181 208 227 244 247 250 249 255
178 175 174 173 173 172 177 175 172 169 166 162 162 166 166 171 170 169 161 158 151 146 143 152 165 186 186 187 192 196 199 165 172 170 211 216 231 232 242 246 250 253
178 175 174 173 174 180 179 175 170 167 169 169 168 166 171 172 166 142 133 138 146 148 156 154 160 184 186 187 191 197 195 168 188 193 201 214 231 235 237 243 246 260
176 176 176 176 179 181 175 172 173 173 166 166 169 167 167 166 165 162 160 136 145 149 171 164 151 179 186 185 189 196 198 172 182 183 211 222 226 241 242 245 248 252
176 178 178 178 180 175 175 174 165 160 169 169 168 167 165 164 159 159 150 141 157 155 171 164 159 167 186 184 190 195 199 185 188 205 210 212 239 241 254 251 255 285